• In Uzbekistan
  • List of Countries
  • For 7 days
  • Water Temperature
  • Satellite Maps
  • Weather Map
  • Weather Widgets
  • user-avatar
    Login

    Hourly Weather Smigno

    Today, 22 February, Friday

    Time Temperature Precipitation Wind Pressure Humidity
    00:00 +3°C° 0.6 mm 5 mps 744 mmHg 86%
    01:00 +4°C° 0 mm 4 mps 744 mmHg 87%
    02:00 +4°C° 0.8 mm 4 mps 744 mmHg 88%
    03:00 +3°C° 0.8 mm 5 mps 744 mmHg 89%
    04:00 +3°C° 0.8 mm 5 mps 744 mmHg 90%
    05:00 +2°C° 0.8 mm 6 mps 745 mmHg 88%
    06:00 -1°C° 0.8 mm 7 mps 745 mmHg 87%
    07:00 -4°C° 0.8 mm 8 mps 746 mmHg 86%
    08:00 -3°C° 0.2 mm 7 mps 747 mmHg 79%
    09:00 -4°C° 0.2 mm 7 mps 749 mmHg 73%
    10:00 -4°C° 0.2 mm 7 mps 750 mmHg 66%
    11:00 -4°C° 0 mm 7 mps 751 mmHg 61%
    12:00 -4°C° 0 mm 7 mps 752 mmHg 55%
    13:00 -4°C° 0 mm 7 mps 753 mmHg 50%
    14:00 -4°C° 0 mm 7 mps 753 mmHg 49%
    15:00 -6°C° 0 mm 7 mps 754 mmHg 49%
    16:00 -6°C° 0 mm 7 mps 754 mmHg 48%
    17:00 -6°C° 0 mm 6 mps 755 mmHg 49%
    18:00 -6°C° 0 mm 6 mps 756 mmHg 49%
    19:00 -7°C° 0 mm 5 mps 757 mmHg 50%
    20:00 -7°C° 0 mm 5 mps 757 mmHg 48%
    21:00 -7°C° 0 mm 5 mps 758 mmHg 46%
    22:00 -7°C° 0 mm 5 mps 759 mmHg 44%
    23:00 -7°C° 0 mm 5 mps 759 mmHg 44%

    Tomorrow, 23 February, Saturday

    Time Temperature Precipitation Wind Pressure Humidity
    00:00 -7°C° 0 mm 5 mps 759 mmHg 44%
    01:00 -7°C° 0 mm 5 mps 760 mmHg 45%
    02:00 -7°C° 0 mm 4 mps 760 mmHg 46%
    03:00 -7°C° 0 mm 4 mps 760 mmHg 48%
    04:00 -7°C° 0 mm 4 mps 760 mmHg 49%
    05:00 -7°C° 0 mm 4 mps 760 mmHg 51%
    06:00 -7°C° 0 mm 4 mps 760 mmHg 52%
    07:00 -7°C° 0 mm 3 mps 761 mmHg 54%
    08:00 -6°C° 0 mm 3 mps 761 mmHg 51%
    09:00 -5°C° 0 mm 4 mps 761 mmHg 49%
    10:00 -5°C° 0 mm 4 mps 761 mmHg 46%
    11:00 -4°C° 0 mm 3 mps 761 mmHg 44%
    12:00 -4°C° 0 mm 3 mps 761 mmHg 41%
    13:00 -2°C° 0 mm 3 mps 761 mmHg 38%
    14:00 -2°C° 0 mm 2 mps 761 mmHg 39%
    15:00 -2°C° 0 mm 2 mps 761 mmHg 39%
    16:00 -2°C° 0 mm 2 mps 761 mmHg 40%
    17:00 -3°C° 0 mm 2 mps 761 mmHg 43%
    18:00 -1°C° 0 mm 1 mps 761 mmHg 47%
    19:00 -2°C° 0 mm 1 mps 761 mmHg 50%
    20:00 -2°C° 0 mm 1 mps 761 mmHg 51%
    21:00 -3°C° 0 mm 0 mps 761 mmHg 51%
    22:00 -3°C° 0 mm 0 mps 761 mmHg 52%
    23:00 -3°C° 0 mm 0 mps 761 mmHg 52%

    Day after tomorrow, 24 February, Sunday

    Time Temperature Precipitation Wind Pressure Humidity
    00:00 -2°C° 0 mm 1 mps 761 mmHg 52%
    01:00 -2°C° 0 mm 1 mps 760 mmHg 52%
    02:00 -2°C° 0 mm 1 mps 760 mmHg 51%
    03:00 -2°C° 0 mm 1 mps 760 mmHg 50%
    04:00 -2°C° 0 mm 1 mps 760 mmHg 50%
    05:00 -1°C° 0 mm 1 mps 760 mmHg 49%
    06:00 -1°C° 0 mm 1 mps 760 mmHg 48%
    07:00 -1°C° 0 mm 1 mps 760 mmHg 47%
    08:00 -2°C° 0 mm 2 mps 760 mmHg 43%
    09:00 -1°C° 0 mm 2 mps 759 mmHg 39%
    10:00 +1°C° 0 mm 2 mps 759 mmHg 35%
    11:00 +2°C° 0 mm 2 mps 759 mmHg 33%
    12:00 +2°C° 0 mm 3 mps 759 mmHg 31%
    13:00 +3°C° 0 mm 3 mps 759 mmHg 29%
    14:00 +4°C° 0 mm 2 mps 758 mmHg 32%
    15:00 +3°C° 0 mm 2 mps 758 mmHg 36%
    16:00 +3°C° 0 mm 2 mps 758 mmHg 40%
    17:00 +2°C° 0 mm 2 mps 758 mmHg 42%
    18:00 +1°C° 0 mm 2 mps 758 mmHg 45%
    19:00 -1°C° 0 mm 2 mps 758 mmHg 48%
    20:00 -1°C° 0 mm 2 mps 758 mmHg 49%
    21:00 -1°C° 0 mm 2 mps 758 mmHg 50%
    22:00 -2°C° 0 mm 2 mps 758 mmHg 51%
    23:00 -1°C° 0 mm 3 mps 758 mmHg 52%

    25 February, Monday

    Time Temperature Precipitation Wind Pressure Humidity
    00:00 -1°C° 0 mm 3 mps 758 mmHg 52%
    01:00 -1°C° 0 mm 3 mps 758 mmHg 52%
    02:00 -1°C° 0 mm 3 mps 758 mmHg 53%
    03:00 -1°C° 0 mm 3 mps 758 mmHg 54%
    04:00 -2°C° 0 mm 4 mps 757 mmHg 55%
    05:00 -2°C° 0 mm 4 mps 757 mmHg 56%
    06:00 -2°C° 0 mm 4 mps 757 mmHg 58%
    07:00 -2°C° 0 mm 4 mps 757 mmHg 59%
    08:00 -1°C° 0 mm 4 mps 757 mmHg 58%
    09:00 0°C° 0 mm 5 mps 757 mmHg 56%
    10:00 +2°C° 0 mm 5 mps 757 mmHg 55%
    11:00 +3°C° 0 mm 5 mps 757 mmHg 57%
    12:00 +5°C° 0 mm 5 mps 757 mmHg 58%
    13:00 +6°C° 0 mm 5 mps 757 mmHg 60%
    14:00 +5°C° 0 mm 4 mps 756 mmHg 65%
    15:00 +5°C° 0 mm 4 mps 756 mmHg 71%
    16:00 +5°C° 0 mm 3 mps 756 mmHg 76%
    17:00 +3°C° 0 mm 3 mps 756 mmHg 81%
    18:00 +3°C° 0 mm 2 mps 756 mmHg 86%
    19:00 +2°C° 0 mm 2 mps 757 mmHg 92%
    20:00 +2°C° 0 mm 2 mps 756 mmHg 92%
    21:00 +1°C° 0 mm 2 mps 756 mmHg 93%
    22:00 +1°C° 0 mm 2 mps 756 mmHg 94%
    23:00 +1°C° 0 mm 2 mps 756 mmHg 94%

    26 February, Tuesday

    Time Temperature Precipitation Wind Pressure Humidity
    00:00 +1°C° 0 mm 2 mps 755 mmHg 94%
    01:00 -1°C° 0 mm 3 mps 755 mmHg 94%
    02:00 0°C° 0 mm 3 mps 754 mmHg 93%
    03:00 0°C° 0 mm 3 mps 754 mmHg 93%
    04:00 -1°C° 0 mm 4 mps 753 mmHg 92%
    05:00 -1°C° 0 mm 4 mps 752 mmHg 90%
    06:00 0°C° 0 mm 5 mps 752 mmHg 88%
    07:00 -1°C° 0 mm 6 mps 751 mmHg 86%
    08:00 +1°C° 0 mm 6 mps 751 mmHg 81%
    09:00 +1°C° 0 mm 6 mps 750 mmHg 76%
    10:00 +2°C° 0 mm 6 mps 750 mmHg 70%
    11:00 +2°C° 0 mm 6 mps 750 mmHg 71%
    12:00 +3°C° 0 mm 7 mps 750 mmHg 72%
    13:00 +3°C° 0 mm 7 mps 749 mmHg 73%
    14:00 +3°C° 0 mm 7 mps 749 mmHg 72%
    15:00 +4°C° 0 mm 7 mps 749 mmHg 71%
    16:00 +4°C° 0 mm 7 mps 749 mmHg 71%
    17:00 +3°C° 0 mm 6 mps 749 mmHg 74%
    18:00 +3°C° 0 mm 6 mps 749 mmHg 78%
    19:00 +2°C° 0 mm 6 mps 749 mmHg 81%
    20:00 +1°C° 0 mm 5 mps 749 mmHg 80%
    21:00 +1°C° 0 mm 5 mps 749 mmHg 78%
    22:00 0°C° 0 mm 4 mps 750 mmHg 76%
    23:00 0°C° 0 mm 4 mps 750 mmHg 78%

    27 February, Wednesday

    Time Temperature Precipitation Wind Pressure Humidity
    00:00 -1°C° 0 mm 4 mps 750 mmHg 80%
    01:00 -1°C° 0 mm 4 mps 750 mmHg 83%
    02:00 -1°C° 0 mm 4 mps 750 mmHg 85%
    03:00 -2°C° 0 mm 4 mps 750 mmHg 87%
    04:00 -2°C° 0 mm 4 mps 750 mmHg 89%
    05:00 -1°C° 0 mm 3 mps 751 mmHg 90%
    06:00 -1°C° 0 mm 3 mps 751 mmHg 91%
    07:00 -1°C° 0 mm 3 mps 751 mmHg 91%
    08:00 0°C° 0 mm 3 mps 751 mmHg 84%
    09:00 +1°C° 0 mm 3 mps 751 mmHg 77%
    10:00 +3°C° 0 mm 3 mps 751 mmHg 71%
    11:00 +4°C° 0 mm 3 mps 751 mmHg 65%
    12:00 +5°C° 0 mm 4 mps 751 mmHg 58%
    13:00 +6°C° 0 mm 4 mps 750 mmHg 52%
    14:00 +6°C° 0 mm 4 mps 750 mmHg 52%
    15:00 +7°C° 0 mm 3 mps 750 mmHg 52%
    16:00 +7°C° 0 mm 3 mps 749 mmHg 52%
    17:00 +5°C° 0 mm 3 mps 749 mmHg 58%
    18:00 +4°C° 0 mm 3 mps 749 mmHg 63%
    19:00 +2°C° 0 mm 3 mps 749 mmHg 68%
    20:00 +2°C° 0 mm 3 mps 748 mmHg 68%
    21:00 +2°C° 0 mm 3 mps 747 mmHg 69%
    22:00 0°C° 0 mm 4 mps 747 mmHg 69%
    23:00 0°C° 0 mm 4 mps 746 mmHg 65%
    Show more